| time (UTC) | temp C | wind direction | speed KPH | gust KPH | rain 1hr cm | rain 24hr cm | rain mn cm | humidity % | barometer mb |
| 20260508203017 | 20 | 212 | 0.0 | 4.8 | 0.00 | 0.03 | 0.03 | 38 | 1014.3 |
| 20260508201513 | 20 | 154 | 0.0 | 0.0 | 0.00 | 0.03 | 0.03 | 35 | 1014.6 |
| 20260508200009 | 20 | 183 | 0.0 | 8.0 | 0.00 | 0.03 | 0.03 | 32 | 1015.2 |
| 20260508194507 | 20 | 142 | 0.0 | 0.0 | 0.00 | 0.03 | 0.03 | 32 | 1015.4 |
| 20260508193004 | 20 | 63 | 0.0 | 3.2 | 0.00 | 0.03 | 0.03 | 31 | 1015.6 |
| 20260508191602 | 19 | 222 | 0.0 | 8.0 | 0.00 | 0.03 | 0.03 | 33 | 1015.7 |
| 20260508190056 | 19 | 169 | 0.0 | 0.0 | 0.00 | 0.03 | 0.03 | 38 | 1016.0 |
| 20260508184607 | 18 | 309 | 0.0 | 4.8 | 0.00 | 0.03 | 0.03 | 42 | 1016.4 |
| 20260508183052 | 18 | 31 | 0.0 | 0.0 | 0.00 | 0.03 | 0.03 | 35 | 1016.5 |
| 20260508181559 | 18 | 75 | 0.0 | 0.0 | 0.00 | 0.03 | 0.03 | 31 | 1016.7 |
| 20260508180045 | 18 | 309 | 0.0 | 0.0 | 0.00 | 0.03 | 0.03 | 45 | 1016.7 |
| 20260508174541 | 17 | 242 | 0.0 | 0.0 | 0.00 | 0.03 | 0.03 | 48 | 1017.0 |
| 20260508173041 | 16 | 274 | 0.0 | 0.0 | 0.00 | 0.03 | 0.03 | 51 | 1017.4 |
| 20260508171543 | 17 | 70 | 0.0 | 0.0 | 0.00 | 0.03 | 0.03 | 50 | 1017.8 |
| 20260508170034 | 17 | 330 | 0.0 | 1.6 | 0.00 | 0.03 | 0.03 | 54 | 1018.0 |
| 20260508164531 | 16 | 321 | 0.0 | 0.0 | 0.00 | 0.03 | 0.03 | 53 | 1018.3 |
| 20260508163032 | 16 | 299 | 0.0 | 0.0 | 0.00 | 0.03 | 0.03 | 57 | 1018.7 |
| 20260508161528 | 15 | 213 | 0.0 | 0.0 | 0.00 | 0.05 | 0.03 | 61 | 1018.8 |
| 20260508160048 | 15 | 276 | 0.0 | 0.0 | 0.00 | 0.05 | 0.03 | 64 | 1019.1 |
| 20260508154522 | 14 | 257 | 0.0 | 0.0 | 0.00 | 0.05 | 0.03 | 66 | 1019.2 |
| 20260508153018 | 13 | 225 | 0.0 | 0.0 | 0.00 | 0.05 | 0.03 | 68 | 1019.4 |
| 20260508151514 | 13 | 290 | 0.0 | 0.0 | 0.00 | 0.08 | 0.03 | 77 | 1019.5 |
| 20260508150014 | 12 | 301 | 0.0 | 0.0 | 0.00 | 0.08 | 0.03 | 83 | 1019.7 |
| 20260508144505 | 11 | 290 | 0.0 | 0.0 | 0.00 | 0.08 | 0.03 | 88 | 1019.8 |
| 20260508143110 | 11 | 297 | 0.0 | 0.0 | 0.00 | 0.08 | 0.03 | 93 | 1019.7 |
| 20260508141606 | 10 | 295 | 0.0 | 0.0 | 0.00 | 0.10 | 0.03 | 95 | 1019.8 |
| 20260508140054 | 10 | 293 | 0.0 | 0.0 | 0.00 | 0.10 | 0.03 | 97 | 1019.9 |
| 20260508134549 | 9 | 279 | 0.0 | 0.0 | 0.00 | 0.10 | 0.03 | 97 | 1019.9 |
| 20260508133055 | 8 | 263 | 0.0 | 0.0 | 0.00 | 0.10 | 0.03 | 97 | 1019.8 |
| 20260508131542 | 7 | 279 | 0.0 | 0.0 | 0.00 | 0.13 | 0.03 | 97 | 1019.7 |
| 20260508130037 | 7 | 313 | 0.0 | 0.0 | 0.00 | 0.13 | 0.03 | 97 | 1019.7 |
| 20260508124536 | 6 | 240 | 0.0 | 0.0 | 0.00 | 0.13 | 0.03 | 97 | 1019.6 |
| 20260508123035 | 6 | 280 | 0.0 | 0.0 | 0.00 | 0.13 | 0.03 | 97 | 1019.4 |
| 20260508121553 | 5 | 287 | 0.0 | 0.0 | 0.00 | 0.15 | 0.03 | 97 | 1019.5 |
| 20260508120035 | 5 | 281 | 0.0 | 0.0 | 0.03 | 0.15 | 0.03 | 97 | 1019.3 |
| 20260508114530 | 4 | 315 | 0.0 | 0.0 | 0.03 | 0.15 | 0.03 | 97 | 1019.1 |
| 20260508113028 | 3 | 139 | 0.0 | 0.0 | 0.03 | 0.15 | 0.03 | 97 | 1018.9 |
| 20260508111525 | 3 | 139 | 0.0 | 0.0 | 0.03 | 0.18 | 0.03 | 97 | 1018.5 |
| 20260508110019 | 2 | 139 | 0.0 | 0.0 | 0.00 | 0.15 | 0.00 | 97 | 1018.2 |
| 20260508104520 | 3 | 139 | 0.0 | 0.0 | 0.00 | 0.15 | 0.00 | 97 | 1018.1 |
| 20260508103016 | 3 | 139 | 0.0 | 0.0 | 0.00 | 0.15 | 0.00 | 97 | 1017.8 |
| 20260508101512 | 3 | 139 | 0.0 | 0.0 | 0.00 | 0.20 | 0.00 | 97 | 1017.6 |
| 20260508100008 | 3 | 139 | 0.0 | 0.0 | 0.00 | 0.20 | 0.00 | 97 | 1017.5 |
| 20260508094507 | 3 | 139 | 0.0 | 0.0 | 0.00 | 0.20 | 0.00 | 97 | 1017.4 |
| 20260508093004 | 4 | 139 | 0.0 | 0.0 | 0.00 | 0.20 | 0.00 | 97 | 1017.4 |
| 20260508091503 | 4 | 139 | 0.0 | 0.0 | 0.00 | 0.23 | 0.00 | 97 | 1017.5 |
| 20260508090030 | 5 | 139 | 0.0 | 0.0 | 0.00 | 0.23 | 0.00 | 97 | 1017.3 |
| 20260508084526 | 5 | 139 | 0.0 | 0.0 | 0.00 | 0.23 | 0.00 | 97 | 1017.1 |
| 20260508083109 | 5 | 139 | 0.0 | 0.0 | 0.00 | 0.23 | 0.00 | 97 | 1017.1 |
| 20260508081522 | 6 | 139 | 0.0 | 0.0 | 0.00 | 0.23 | 0.00 | 97 | 1017.1 |
| 20260508080021 | 6 | 143 | 0.0 | 0.0 | 0.00 | 0.23 | 0.00 | 97 | 1016.9 |
| 20260508074523 | 6 | 143 | 0.0 | 0.0 | 0.00 | 0.23 | 0.00 | 97 | 1016.9 |
| 20260508073055 | 6 | 143 | 0.0 | 0.0 | 0.00 | 0.23 | 0.00 | 97 | 1017.0 |
| 20260508071551 | 6 | 143 | 0.0 | 0.0 | 0.00 | 0.36 | 0.00 | 97 | 1016.9 |
| 20260508070015 | 6 | 143 | 0.0 | 0.0 | 0.00 | 0.36 | 0.00 | 97 | 1016.9 |
| 20260508064535 | 7 | 143 | 0.0 | 0.0 | 0.00 | 0.36 | 0.00 | 97 | 1017.0 |
| 20260508063009 | 7 | 143 | 0.0 | 0.0 | 0.00 | 0.36 | 0.00 | 97 | 1017.0 |
| 20260508061508 | 7 | 143 | 0.0 | 0.0 | 0.00 | 0.38 | 0.36 | 97 | 1016.9 |
| 20260508060008 | 7 | 143 | 0.0 | 0.0 | 0.00 | 0.38 | 0.36 | 97 | 1017.1 |
| 20260508054505 | 7 | 143 | 0.0 | 0.0 | 0.00 | 0.38 | 0.36 | 97 | 1017.1 |
| 20260508053004 | 7 | 143 | 0.0 | 0.0 | 0.00 | 0.38 | 0.36 | 97 | 1017.1 |
| 20260508051600 | 7 | 143 | 0.0 | 0.0 | 0.00 | 0.38 | 0.36 | 96 | 1017.0 |
| 20260508050100 | 7 | 143 | 0.0 | 0.0 | 0.00 | 0.38 | 0.36 | 97 | 1017.0 |
| 20260508044556 | 7 | 143 | 0.0 | 0.0 | 0.00 | 0.38 | 0.36 | 96 | 1016.9 |
| 20260508043054 | 8 | 143 | 0.0 | 0.0 | 0.00 | 0.38 | 0.36 | 97 | 1016.5 |
| 20260508041552 | 7 | 143 | 0.0 | 0.0 | 0.00 | 0.38 | 0.36 | 97 | 1016.4 |
| 20260508040049 | 7 | 143 | 0.0 | 0.0 | 0.00 | 0.38 | 0.36 | 96 | 1016.2 |
| 20260508034553 | 7 | 143 | 0.0 | 0.0 | 0.00 | 0.38 | 0.36 | 96 | 1016.1 |
| 20260508033046 | 8 | 143 | 0.0 | 0.0 | 0.00 | 0.38 | 0.36 | 96 | 1016.2 |
| 20260508031542 | 8 | 143 | 0.0 | 0.0 | 0.00 | 0.38 | 0.36 | 96 | 1016.2 |
| 20260508030046 | 8 | 143 | 0.0 | 0.0 | 0.00 | 0.38 | 0.36 | 96 | 1016.0 |
| 20260508024551 | 8 | 143 | 0.0 | 0.0 | 0.00 | 0.38 | 0.36 | 96 | 1015.7 |
| 20260508023037 | 8 | 143 | 0.0 | 0.0 | 0.00 | 0.38 | 0.36 | 95 | 1015.5 |
| 20260508021534 | 9 | 143 | 0.0 | 0.0 | 0.00 | 0.48 | 0.36 | 95 | 1015.4 |
| 20260508020029 | 9 | 143 | 0.0 | 0.0 | 0.00 | 0.48 | 0.36 | 94 | 1015.3 |
| 20260508014532 | 9 | 143 | 0.0 | 0.0 | 0.00 | 0.48 | 0.36 | 94 | 1014.8 |
| 20260508013025 | 10 | 143 | 0.0 | 0.0 | 0.00 | 0.48 | 0.36 | 93 | 1014.6 |
| 20260508011523 | 10 | 143 | 0.0 | 0.0 | 0.00 | 0.69 | 0.36 | 92 | 1014.5 |
| 20260508010025 | 11 | 178 | 0.0 | 0.0 | 0.00 | 0.69 | 0.36 | 92 | 1014.2 |
| 20260508004516 | 11 | 178 | 0.0 | 0.0 | 0.00 | 0.69 | 0.36 | 90 | 1014.0 |
| 20260508003015 | 11 | 178 | 0.0 | 0.0 | 0.00 | 0.69 | 0.36 | 88 | 1013.7 |
| 20260508001513 | 12 | 92 | 0.0 | 0.0 | 0.00 | 0.71 | 0.36 | 87 | 1013.7 |
| 20260508000012 | 12 | 152 | 0.0 | 0.0 | 0.00 | 0.71 | 0.36 | 85 | 1013.8 |
| 20260507234518 | 13 | 152 | 0.0 | 0.0 | 0.00 | 0.71 | 0.36 | 84 | 1013.8 |
| 20260507233012 | 13 | 84 | 0.0 | 0.0 | 0.00 | 0.71 | 0.36 | 84 | 1013.7 |
| 20260507231508 | 13 | 72 | 0.0 | 0.0 | 0.00 | 0.71 | 0.36 | 83 | 1013.9 |
| 20260507230008 | 14 | 139 | 0.0 | 0.0 | 0.00 | 0.71 | 0.36 | 80 | 1013.8 |
| 20260507224514 | 13 | 98 | 0.0 | 0.0 | 0.00 | 0.71 | 0.36 | 81 | 1013.8 |
| 20260507223008 | 13 | 108 | 0.0 | 0.0 | 0.00 | 0.71 | 0.36 | 81 | 1013.9 |
| 20260507221505 | 13 | 100 | 0.0 | 0.0 | 0.00 | 0.71 | 0.36 | 80 | 1013.5 |
| 20260507220004 | 13 | 148 | 0.0 | 0.0 | 0.00 | 0.71 | 0.36 | 78 | 1013.4 |
| 20260507214503 | 13 | 162 | 0.0 | 0.0 | 0.00 | 0.71 | 0.36 | 78 | 1013.3 |
| 20260507213004 | 13 | 191 | 0.0 | 0.0 | 0.00 | 0.71 | 0.36 | 78 | 1013.2 |
| 20260507211502 | 13 | 143 | 0.0 | 0.0 | 0.00 | 0.71 | 0.36 | 77 | 1013.1 |
| 20260507210100 | 13 | 107 | 0.0 | 0.0 | 0.00 | 0.71 | 0.36 | 77 | 1013.1 |
| 20260507204612 | 13 | 193 | 0.0 | 0.0 | 0.00 | 0.71 | 0.36 | 79 | 1013.0 |